AirNav   Duncan Aviation - Near you to keep you flying
 
 1010 users online  

2RI7 Malbone Estate Heliport
Newport, Rhode Island, USA

GOING TO NEWPORT?


FAA INFORMATION EFFECTIVE 16 JUNE 2022

Location

FAA Identifier: 2RI7
Lat/Long: 41-30-23.2000N 071-18-40.7300W
41-30.386667N 071-18.678833W
41.5064444,-71.3113139
(estimated)
Elevation: 83 ft. / 25 m (estimated)
Variation: 15W (2000)
From city: 2 miles SW of NEWPORT, RI
Time zone: UTC -4 (UTC -5 during Standard Time)
Zip code: 02840

Heliport Operations

Heliport use: Private use. Permission required prior to landing
Activation date: 06/2002
Control tower: no
ARTCC: BOSTON CENTER
FSS: BRIDGEPORT FLIGHT SERVICE STATION
Attendance: UNATNDD
Wind indicator: yes
Segmented circle: no

Heliport Communications

WX ASOS at UUU (2.1 nm NE): 132.075 (401-846-5910)
WX ASOS at OQU (7 nm NW): 118.6
WX ASOS at PVD (14 nm N): 124.2 (401-734-2818)
WX ASOS at EWB (19 nm NE): 126.85 (508-992-0195)

Heliport Services

Runway Information

Helipad H1

Dimensions: 50 x 150 ft. / 15 x 46 m
Surface: turf
Traffic pattern: leftleft

Heliport Ownership and Management from official FAA records

Ownership: Privately-owned
Owner: MALBONE ROAD TRUST
MALBONE ESTATE, MALBONE ROAD
NEWPORT, RI 02840
Phone 401-848-0054
Manager: JAMES H. LEACH
MALBONE ESTATE, MALBONE ROAD
NEWPORT, RI 02840
Phone 401-848-0054

Additional Remarks

A52-H1 RADIO TOWER 331 FT 1/4 MILE SW.
FOR CD CTC PROVIDENCE APCH AT 401-738-8945, WHEN APCH CLSD CTC BOSTON ARTCC AT 603-879-6859.

Instrument Procedures

There are no published instrument procedures at 2RI7.

Some nearby airports with instrument procedures:

KUUU - Newport State Airport (2 nm NE)
KOQU - Quonset State Airport (7 nm NW)
KPVD - Rhode Island TF Green International Airport (14 nm N)
KEWB - New Bedford Regional Airport (19 nm NE)
KBID - Block Island State Airport (24 nm SW)
 
Loc | Ops | Rwys | IFR | FBO | Links
Com | Nav | Svcs | Stats | Notes
Area around 2RI7 (Malbone Estate Heliport)
 
Road maps at: MapQuest Bing Google
 
Aerial photo
No photo
 
Sectional chart

 
Airport distance calculator
Flying to Malbone Estate Heliport? Find the distance to fly.

From to 2RI7

Sunrise and sunset
Times for 02-Jul-2022
 Local
(UTC-4)
 Zulu
(UTC)
Morning civil twilight04:4308:43
Sunrise05:1709:17
Sunset20:2200:22
Evening civil twilight20:5600:56

Current date and time
Zulu (UTC)  02-Jul-2022 14:22:40
Local (UTC-4)  02-Jul-2022 10:22:40
 
METAR
KUUU 
2nm NE 
021400Z AUTO VRB03KT 1 1/2SM BR OVC002 21/21 A2991 RMK AO2 LTG DSNT SE AND S T02110211
KOQU 
7nm NW 
021350Z 25012KT 6SM BR BKN007 OVC080 25/21 A2991
KPVD 
14nm NW 
021351Z 25009KT 10SM BKN010 BKN120 25/22 A2990 RMK AO2 RAB1254E06 SLP124 P0000 T02500217
KEWB 
19nm NE 
021353Z 25010G17KT 5SM -RA BR OVC005 23/22 A2989 RMK AO2 LTG DSNT SE AND S RAB1259E32B52 SLP121 P0000 T02330217
TAF
KPVD 
14nm NW 
021120Z 0212/0312 22007KT P6SM VCSH OVC035 FM021900 22008KT P6SM VCTS BKN030CB FM030000 24005KT 6SM BR BKN060 FM030500 24004KT 3SM BR BKN080 FM030700 25004KT P6SM BKN070
NOTAMs
Click for the latest NOTAMs
NOTAMs are issued by the DoD/FAA and will open in a separate window not controlled by AirNav.

 

 
 

Would you like to see your business listed on this page?

 If your business provides an interesting product or service to pilots, flight crews, aircraft, or users of the Malbone Estate Heliport, you should consider listing it here.  To start the listing process, click on the button below
 
Add a business
 

Other Pages about Malbone Estate Heliport

www.malboneestate.com
 
Update a link
 
Copyright © AirNav, LLC. All rights reserved. Privacy Policy  Contact